Location: Braunsdorf
(50.7357°N, 11.9136°E)
Time: 04:50:29
(UTC+00:00)

NOSS 2-1 (D) - Pass Details

Date: 17 February 2020
Orbit: 450 x 1753 km, 63.3° (Epoch: 27 March)

Event Time Altitude Azimuth Distance (km) Brightness Sun altitude
Exits shadow 04:16:27 79° 271° (W) 486 2.8 -20.4°
Maximum altitude 04:16:36 82° 314° (NW) 484 2.9 -20.4°
Drops below altitude 10° 04:20:26 10° 43° (NE) 1,791 6.6 -19.8°
Sets 04:22:52 0° 44° (NE) 2,823 7.7 -19.4°
